sat.trackr.live / text

‹ back to catalog

STARLINK-3310

NORAD 50835 · 2022-001AJ

PAYLOAD ACTIVE UNKNOWN

§ Identity

Operator
Country
US
Launch date
2022-01-06
Launch site
AFETR
Launch vehicle
Mass (kg)
RCS (m²)

Purposes: comms

External: N2YO · Heavens-Above · Gunter

§ Orbital elements

Epoch: 2026-05-25T03:16:22.139904Z

Period
95.38 min
Inclination
53.2141°
Eccentricity
0.0001238
Mean motion
15.09779741 rev/d
Perigee alt
536.0 km
Apogee alt
537.7 km
Semi-major
6,915.0 km
B*
7.6397e-4
RAAN
195.9473°
Arg perigee
56.3768°
Mean anomaly
303.7342°
Rev number
24,180

§ Raw data

STARLINK-33101 50835U 22001AJ  26145.13636736  .00012207  00000+0  76397-3 0  99952 50835  53.2141 195.9473 0001238  56.3768 303.7342 15.09779741241803

JSON: /api/v1/satellites/50835 · /tle

For live sub-satellite position, see the globe view (requires WebGL).

§ Visibility from observer

Set your observer location to see the next 7 days of passes ≥ 10°. The values pass through the URL so the page stays shareable.

No JS? Fill the form by hand. The geolocation button needs JavaScript.